Location: Nassau
(25.0830°N, 77.3500°W)
Time: 17:40:28
(UTC-05:00)

ISS - All Passes

Search period start: 27 February 2015 00:00
Search period end: 09 March 2015 01:00
Orbit: 397 x 408 km, 51.6° (Epoch: 27 February)

Date Brightness Start Highest point End Pass type
(mag) Time Alt. Az. Time Alt. Az. Time Alt. Az.
27 Feb - 09:25:41 10° SW 09:28:50 52° NW 09:31:59 10° NNE daylight
27 Feb - 17:36:11 10° NNW 17:39:07 31° NE 17:42:05 10° ESE daylight
27 Feb - 19:14:05 10° WSW 19:15:21 12° SW 19:16:29 10° SSW visible
28 Feb - 08:32:46 10° SSW 08:35:55 55° SE 08:39:04 10° NE daylight
28 Feb - 16:44:05 10° N 16:46:01 15° NE 16:48:01 10° E daylight
28 Feb - 18:19:38 10° WNW 18:22:29 27° SW 18:25:17 10° S daylight
01 Mar - 07:40:31 10° S 07:43:00 21° SE 07:45:33 10° ENE daylight
01 Mar - 09:17:03 10° W 09:19:23 18° NW 09:21:40 10° N daylight
01 Mar - 17:26:19 10° NW 17:29:32 75° SW 17:32:46 10° SE daylight
02 Mar - 08:23:10 10° WSW 08:26:14 40° NW 08:29:17 10° NNE daylight
02 Mar - 16:33:25 10° NNW 16:36:29 39° NE 16:39:33 10° ESE daylight
03 Mar - 07:29:58 10° SW 07:33:09 74° SE 07:36:22 10° NE daylight
03 Mar - 15:41:00 10° N 15:43:17 18° NE 15:45:37 10° E daylight
03 Mar - 17:17:04 10° WNW 17:19:39 22° SW 17:22:12 10° S daylight
04 Mar - 06:37:21 10° S 06:40:06 27° SE 06:42:54 10° ENE daylight
04 Mar - 08:14:33 10° W 08:16:33 15° NW 08:18:28 10° N daylight
04 Mar - 16:23:25 10° NW 16:26:36 57° SW 16:29:47 10° SSE daylight
05 Mar - 05:46:06 10° SE 05:47:02 11° SE 05:48:07 10° ESE visible
05 Mar - 07:20:18 10° WSW 07:23:14 32° NW 07:26:10 10° NNE daylight
05 Mar - 15:30:17 10° NNW 15:33:26 50° NE 15:36:36 10° SE daylight
06 Mar - 06:26:47 10° SW 06:30:00 85° NW 06:33:14 10° NE daylight
06 Mar - 14:37:35 10° N 14:40:08 21° NE 14:42:43 10° E daylight
06 Mar - 16:14:09 10° W 16:16:26 17° SW 16:18:38 10° S daylight
07 Mar - 05:33:52 10° SSW 05:36:48 33° SE 05:39:46 10° ENE visible
07 Mar - 07:11:45 10° WNW 07:13:19 13° NW 07:14:47 10° NNW daylight
07 Mar - 13:46:00 10° NNE 13:46:38 10° NE 13:47:24 10° NE daylight
07 Mar - 15:20:09 10° NW 15:23:15 44° SW 15:26:20 10° SSE daylight
08 Mar - 05:41:54 10° SSE 05:43:35 14° SE 05:45:24 10° E visible
08 Mar - 07:17:03 10° WSW 07:19:50 26° NW 07:22:36 10° NNE daylight
08 Mar - 15:26:46 10° NW 15:29:59 65° NE 15:33:10 10° SE daylight
